Dewpoint
1 3 4 3 -0 -2 -1 -0 -0 -2 -4 -3 -2 -2 -3 -3 0 2 3 3 2 1 1 1 1 0 -0 -0 -1 -1 -1 -1 -2 -1 -1 0 -0 -1 -1 -1 -0 -0 0 1
-0 4 3 1 0 -0 0 0 -0 -2 -3 -2 -2 -1 -1 1 2 3 4 2 2 1 1 0 -1 -2 -4 -6 -7 -8 -8 -7 -7 -6 -6 -5 -5 -5 -4 -4 -3 -4 -4 -3
2 0 -1 0 -0 0 -0 -0 -0 -1 -2 -2 -0 -0 0 2 2 2 2 1 1 0 -1 -2 -4 -4 -5 -6 -5 -8 -10 -11 -12 -13 -12 -10 -9 -8 -9 -9 -8 -9 -8 -8
0 -1 -2 -1 -1 -1 1 -2 -2 -1 1 3 -1 2 0 2 2 1 1 1 0 -0 -2 -3 -3 -3 -2 -2 -1 -1 -2 -3 -6 -8 -11 -12 -12 -11 -12 -13 -12 -12 -11 -8
-1 1 -1 -0 -1 -3 -1 -2 -0 1 2 2 1 2 1 2 3 2 1 0 -0 -1 -3 -2 -1 -1 -2 -2 -1 -1 -0 -1 -3 -4 -5 -7 -8 -8 -9 -10 -12 -11 -10 -7
-1 -1 -1 -1 -1 -2 -1 0 1 -0 1 4 2 1 1 4 3 1 0 0 0 1 1 2 2 2 2 1 0 -0 -0 -1 -1 -3 -4 -5 -5 -5 -5 -5 -6 -6 -7 -6
0 0 -1 -1 -0 -0 0 2 4 5 5 4 -1 2 0 2 1 1 1 1 1 2 2 2 2 2 -0 -3 -4 -5 -5 -5 -5 -5 -5 -5 -5 -4 -4 -4 -4 -4 -4 -4
1 0 -1 -0 -0 0 2 2 3 5 5 1 -1 2 -1 2 1 1 1 1 2 2 2 2 1 0 -4 -6 -6 -5 -4 -5 -5 -5 -5 -5 -5 -4 -4 -4 -3 -3 -3 -3
2 1 -3 -2 -1 -2 1 3 0 3 2 4 1 -0 1 3 2 2 1 2 2 2 1 1 -1 -3 -5 -5 -5 -5 -5 -5 -5 -5 -5 -5 -5 -4 -4 -4 -4 -4 -3 -3
0 2 -2 -3 -4 -4 0 -0 3 4 5 4 1 0 -0 3 3 2 2 2 2 2 1 0 -2 -4 -5 -5 -5 -5 -5 -5 -5 -5 -5 -5 -5 -5 -5 -5 -5 -5 -4 -4
-1 0 0 -0 -1 -1 1 1 1 2 3 6 3 -1 -1 0 2 2 2 2 2 1 1 -0 -3 -5 -5 -5 -5 -5 -5 -4 -4 -4 -4 -5 -5 -5 -5 -5 -5 -5 -5 -5
-2 0 1 0 -1 -2 -3 0 1 4 3 4 3 1 3 2 1 2 2 2 0 0 0 -2 -4 -5 -5 -5 -5 -4 -4 -4 -4 -4 -4 -5 -5 -5 -5 -6 -6 -6 -6 -6
1 3 1 1 1 1 3 2 -0 1 1 3 5 1 3 2 2 2 1 -1 -1 -0 -2 -4 -5 -5 -5 -5 -5 -4 -4 -4 -4 -4 -4 -5 -5 -5 -5 -6 -6 -6 -6 -6
1 2 3 2 -0 -1 2 1 -2 1 3 2 2 1 1 3 3 1 -0 -0 -1 -3 -4 -5 -5 -5 -5 -5 -5 -5 -5 -6 -5 -4 -4 -4 -5 -5 -5 -5 -5 -6 -6 -7
2 2 2 1 0 0 -0 -0 0 -0 -0 2 1 1 -2 1 2 1 -1 -3 -4 -4 -5 -5 -5 -5 -5 -7 -9 -13 -20 -26 -21 -11 -7 -7 -6 -5 -5 -5 -4 -5 -5 -6
-0 3 0 1 -0 -0 1 0 -0 0 -0 -1 -1 1 -2 -2 -2 -2 -3 -3 -4 -4 -5 -5 -6 -6 -7 -10 -20 -27 -27 -28 -28 -28 -26 -24 -24 -25 -24 -19 -10 -5 -5 -5
1 2 2 3 1 1 2 1 0 -0 -0 0 3 0 -2 -2 -2 -2 -3 -3 -4 -5 -5 -6 -6 -7 -8 -16 -24 -28 -29 -29 -29 -28 -28 -27 -25 -27 -28 -28 -28 -29 -28 -22
2 3 3 3 2 4 -2 -3 -2 -1 -1 -1 -1 -2 -3 -2 -3 -3 -3 -3 -4 -5 -5 -6 -7 -8 -13 -17 -18 -22 -28 -32 -31 -31 -30 -29 -29 -28 -27 -28 -30 -31 -30 -29
0 1 3 3 2 -1 -2 -1 -1 -0 -3 -2 -1 -2 -3 -3 -4 -4 -4 -4 -4 -5 -6 -7 -8 -10 -15 -12 -14 -16 -23 -27 -31 -31 -28 -26 -26 -27 -28 -28 -28 -29 -30 -30
1 1 3 3 3 2 -2 -3 -4 -5 -2 -2 -2 -3 -3 -3 -1 -2 -5 -5 -6 -6 -7 -8 -9 -10 -8 -12 -9 -14 -19 -23 -26 -29 -27 -25 -24 -24 -28 -28 -29 -30 -31 -32
3 3 3 3 3 1 -4 -3 -5 -2 -2 -2 -2 -3 -3 -2 -4 -5 -5 -6 -7 -7 -8 -8 -8 -8 -9 -9 -8 -17 -19 -21 -21 -23 -24 -26 -27 -27 -26 -26 -30 -33 -34 -36
2 3 3 2 2 2 -3 -3 -3 -3 -4 -3 -2 -3 -3 -4 -5 -6 -7 -7 -8 -8 -8 -8 -8 -8 -8 -8 -14 -17 -19 -18 -20 -22 -25 -26 -27 -29 -28 -28 -27 -30 -32 -34
2 2 2 1 1 -3 -3 -3 -5 -5 -4 -5 -3 -3 -4 -5 -5 -6 -7 -8 -8 -8 -8 -8 -8 -8 -8 -12 -14 -16 -17 -17 -19 -22 -24 -25 -26 -29 -30 -30 -28 -28 -28 -29
-2 -3 -1 -2 -2 -3 -3 -4 -4 -4 -5 -5 -5 -5 -4 -4 -5 -7 -8 -8 -8 -8 -9 -9 -8 -8 -9 -12 -13 -15 -16 -17 -20 -22 -22 -25 -28 -28 -29 -26 -25 -22 -19 -18
-1 -3 -1 -3 -3 -4 -3 -4 -4 -5 -5 -5 -6 -6 -5 -5 -6 -7 -8 -8 -8 -9 -9 -9 -9 -9 -12 -13 -14 -15 -17 -19 -21 -22 -23 -25 -26 -27 -27 -28 -23 -16 -17 -15
-1 -1 -2 -1 -3 -4 -3 -4 -5 -5 -5 -6 -6 -6 -6 -6 -7 -8 -8 -8 -9 -9 -9 -9 -10 -12 -13 -15 -15 -16 -18 -20 -21 -23 -24 -26 -26 -26 -27 -27 -26 -26 -22 -16
Wind_Speed
4 4 10 13 9 3 3 3 8 8 9 5 7 12 11 17 8 12 9 9 11 13 13 14 15 15 15 14 13 13 11 9 6 2 5 7 8 9 9 10 11 13 14 15
3 7 12 3 6 6 9 9 11 7 6 7 8 16 12 7 5 7 8 9 10 11 12 13 15 17 18 18 18 18 18 17 15 13 9 8 9 11 12 13 13 13 14 16
7 2 5 8 5 8 6 8 9 8 7 6 8 6 5 6 8 8 9 9 10 10 11 12 14 16 17 19 22 21 20 19 18 16 16 14 11 11 13 14 16 16 17 17
6 6 6 6 6 8 6 11 11 8 7 4 5 6 8 4 5 5 6 7 7 7 8 8 9 10 13 14 17 20 20 21 20 20 19 19 19 20 19 21 21 21 20 20
5 5 5 8 10 8 6 5 6 7 8 5 4 6 2 6 2 4 6 7 7 6 6 7 8 8 8 10 14 19 20 23 23 22 22 22 22 21 21 23 24 24 24 23
3 1 3 6 5 8 2 1 2 2 3 6 9 9 3 7 6 7 10 10 8 5 2 1 6 11 15 17 18 20 25 26 28 29 27 26 24 24 25 23 23 24 25 25
2 7 4 6 5 3 5 3 3 3 3 5 3 6 11 8 10 10 16 15 11 5 2 4 6 7 11 15 17 18 20 22 25 28 27 26 27 25 24 26 27 26 25 25
3 3 5 4 8 4 6 7 4 4 3 3 3 6 3 4 9 9 13 14 11 7 3 3 4 8 12 15 17 18 20 21 23 23 23 23 23 24 25 25 26 26 26 27
4 5 1 4 3 5 4 6 2 4 1 5 5 7 4 9 7 11 15 16 13 6 3 4 4 8 12 15 17 20 22 21 20 21 21 22 23 23 22 22 22 23 24 25
3 8 5 2 4 2 6 6 3 1 4 6 6 7 9 9 13 13 16 19 14 12 8 7 5 9 13 15 17 17 18 20 21 22 22 22 22 21 21 21 22 21 22 23
1 2 2 1 6 9 4 4 2 2 3 4 7 7 5 11 13 17 20 20 16 14 11 7 4 8 11 13 13 15 18 20 21 21 21 21 22 22 21 20 21 21 20 20
4 4 5 8 0 4 3 5 8 7 7 5 5 11 1 5 7 16 13 11 13 12 9 6 4 7 10 11 13 14 16 17 20 21 22 23 24 24 23 22 20 19 19 19
2 2 5 5 2 2 6 11 11 6 5 17 6 9 2 3 6 10 14 14 14 13 10 5 2 5 7 9 10 12 13 15 17 18 21 23 25 26 26 24 23 22 21 21
5 3 8 12 11 2 6 8 11 11 5 12 18 20 8 6 9 12 16 18 17 13 9 4 1 3 5 7 9 11 11 13 14 16 17 18 20 21 23 23 24 26 26 24
5 11 10 13 15 13 14 13 12 15 17 11 20 16 11 10 11 11 13 16 16 12 8 4 2 2 4 5 8 9 10 12 13 13 14 15 16 16 17 18 20 24 28 31
2 4 3 13 11 13 17 16 14 16 16 19 21 22 1 1 8 12 16 18 16 12 9 3 2 3 3 6 8 9 10 11 13 14 14 15 16 17 20 21 21 21 24 27
5 4 4 14 4 2 8 21 19 18 18 16 17 18 7 7 8 12 15 15 14 12 8 5 4 5 5 6 8 10 11 10 11 12 14 15 16 17 20 22 22 24 28 28
9 6 6 9 3 10 6 1 3 12 13 9 5 4 6 5 8 10 11 14 13 10 8 7 8 7 6 6 6 9 10 10 11 12 15 16 17 17 18 19 21 23 26 29
17 12 7 6 8 11 11 5 6 6 5 9 7 7 10 13 10 4 10 11 10 9 7 10 9 8 7 6 4 6 9 10 11 13 14 15 16 17 19 21 22 24 26 29
14 15 10 5 5 8 2 3 5 3 7 7 10 11 14 13 6 4 16 13 11 9 11 11 10 8 6 6 4 2 5 9 12 14 15 14 15 17 22 24 24 25 27 30
6 5 16 13 7 7 3 9 6 4 3 10 14 18 18 8 3 8 18 14 12 14 14 12 10 8 8 6 3 3 5 10 12 12 14 15 15 17 20 24 25 27 28 29
10 6 5 6 7 11 13 7 7 4 7 10 12 17 17 10 12 16 17 18 19 17 14 11 10 9 7 5 2 5 7 9 9 11 12 14 16 18 20 22 26 29 30 31
6 6 5 9 5 1 19 2 7 11 12 12 14 17 17 17 16 18 21 21 19 17 15 13 11 10 8 4 5 7 8 8 7 8 12 15 16 18 21 25 27 29 31 34
3 2 3 3 4 6 8 9 11 10 9 12 11 13 16 19 20 23 24 23 20 16 14 13 11 10 8 6 7 7 8 7 6 9 12 14 16 19 22 23 26 28 30 31
3 5 6 2 1 3 8 12 13 11 9 12 11 12 16 17 23 26 26 23 19 15 14 13 13 11 9 9 8 8 7 5 6 9 11 13 16 19 22 24 24 24 26 26
8 5 5 4 7 2 3 20 14 12 15 14 16 18 18 21 27 26 24 22 17 15 15 16 14 12 12 11 10 8 7 6 6 8 11 14 16 18 19 20 21 22 22 22
Wind_Direction
173 190 206 222 202 127 109 273 282 274 273 286 276 292 291 293 15 355 17 88 81 71 70 67 61 56 52 44 38 34 28 23 16 308 285 273 274 272 263 254 258 263 267 264
128 240 227 174 183 226 254 271 273 290 268 288 295 299 312 63 61 47 90 90 92 90 77 64 55 47 42 36 32 26 20 13 8 2 356 327 306 292 283 280 280 278 274 274
195 211 148 183 188 220 240 242 256 265 306 273 316 289 162 80 89 82 80 102 102 97 83 65 52 47 42 35 28 22 18 13 9 1 349 339 326 308 298 291 288 288 286 283
233 236 158 162 220 193 246 231 246 267 308 294 2 298 215 165 104 90 106 108 108 98 84 69 55 32 28 27 23 20 8 360 358 356 352 345 337 327 316 308 302 294 290 289
220 174 176 205 232 184 241 188 257 276 275 300 218 255 180 154 212 183 165 153 143 129 93 54 24 2 346 337 343 343 347 350 349 348 345 339 335 329 320 311 303 298 294 295
253 233 215 209 210 190 105 200 28 32 261 259 227 227 176 190 204 186 188 185 178 154 124 353 338 349 341 338 336 337 330 331 336 342 340 336 332 327 321 313 306 304 299 297
291 239 251 213 233 165 185 153 284 258 204 266 349 224 255 190 188 192 188 191 187 183 240 321 324 345 354 353 345 341 339 336 333 329 331 334 330 328 324 321 317 314 309 303
201 275 185 164 208 174 178 187 199 252 220 282 330 247 261 170 174 187 186 189 187 194 235 276 323 337 344 346 346 341 342 340 337 332 334 335 331 331 329 327 324 322 318 314
188 252 247 187 158 182 159 198 198 261 189 269 244 254 209 170 193 190 196 194 197 199 219 271 297 329 341 346 350 354 354 355 348 345 342 341 341 337 335 331 329 328 324 320
285 271 220 152 124 78 206 149 160 104 248 246 235 252 245 214 221 211 213 209 199 190 226 250 291 331 345 353 357 357 358 359 359 359 357 354 351 349 347 341 338 341 337 333
35 276 294 102 207 199 165 205 185 222 193 263 274 256 209 220 218 208 212 210 196 184 217 246 307 334 343 355 358 9 14 13 15 12 10 8 5 2 1 355 354 352 348 343
216 192 247 250 318 350 311 245 210 232 227 223 283 264 341 252 217 207 203 186 168 185 205 233 286 334 345 356 9 13 16 17 18 17 19 21 21 19 15 9 6 3 360 357
22 246 263 260 215 278 253 259 233 245 268 249 248 264 61 119 149 181 162 157 175 190 191 211 302 336 355 4 10 11 10 10 11 15 20 23 28 26 23 21 20 18 15 14
180 219 249 260 278 288 243 230 223 222 241 252 238 269 231 187 167 165 170 180 180 174 174 189 335 12 12 18 15 11 9 9 9 14 15 21 30 35 32 31 34 37 36 33
192 260 243 253 261 260 259 251 227 219 232 223 262 247 264 214 200 194 171 162 153 154 151 164 127 53 45 39 28 27 24 21 19 17 15 20 25 31 38 40 40 44 45 44
142 274 271 268 260 247 251 247 234 231 240 245 258 265 72 96 138 160 172 164 159 158 157 173 147 91 89 58 42 32 29 31 32 34 36 35 39 41 45 42 36 38 47 48
228 242 254 274 305 347 257 242 222 234 237 247 253 267 176 199 201 179 167 164 160 157 171 184 165 140 106 76 49 40 39 37 37 37 38 35 34 38 43 46 45 48 51 50
228 222 245 269 224 244 276 93 254 239 253 212 230 194 200 176 132 135 161 163 159 172 183 182 160 144 124 95 62 41 42 42 40 40 41 40 38 40 48 52 50 49 50 51
218 220 238 244 231 288 269 204 193 195 264 216 203 141 138 130 119 128 169 175 183 187 195 170 157 145 128 111 68 33 31 39 40 40 41 41 44 47 55 57 55 54 54 52
216 215 212 202 222 245 297 148 136 134 269 161 153 165 158 150 193 185 187 195 186 190 167 157 150 150 151 126 124 12 29 46 49 46 47 47 48 49 56 58 58 58 57 56
202 198 219 224 236 271 195 153 149 160 278 158 170 172 170 188 207 154 172 167 166 158 150 149 148 150 144 140 130 55 67 64 56 50 51 49 50 53 56 59 58 58 57 56
206 207 199 210 221 244 154 129 197 142 136 154 170 177 182 178 154 153 158 155 153 149 149 150 146 139 133 133 108 100 88 76 65 59 59 57 53 56 57 56 55 53 52 50
219 201 191 202 209 134 169 132 169 156 154 167 171 183 190 173 166 170 161 156 152 152 151 152 152 145 137 116 119 112 99 82 72 68 62 57 53 50 51 50 48 46 44 43
246 212 192 175 179 181 169 154 165 163 170 176 187 191 188 184 177 167 159 157 159 160 162 164 164 159 151 143 130 114 99 92 83 74 65 57 53 49 47 48 47 46 42 39
178 169 190 252 104 132 203 200 184 180 181 172 165 171 170 175 168 164 160 162 162 161 162 164 165 159 154 146 138 124 111 100 87 77 67 60 55 51 49 46 48 46 47 45
174 197 202 227 183 176 184 188 182 175 168 163 156 147 155 165 162 163 163 165 166 165 162 157 153 153 144 136 129 126 119 107 92 79 66 59 55 54 51 49 48 48 49 46
Height
1512 1513 1512 1509 1514 1516 1517 1518 1520 1518 1515 1516 1510 1508 1504 1501 1502 1501 1500 1500 1501 1501 1501 1499 1498 1497 1496 1496 1494 1492 1491 1489 1488 1488 1488 1487 1485 1484 1483 1482 1482 1482 1481 1481
1513 1512 1511 1513 1515 1517 1516 1516 1515 1514 1511 1510 1505 1503 1499 1503 1505 1505 1503 1502 1502 1502 1501 1501 1500 1499 1498 1497 1496 1494 1493 1491 1489 1487 1485 1484 1483 1482 1482 1481 1479 1478 1477 1476
1506 1505 1507 1511 1513 1514 1516 1516 1513 1513 1509 1506 1503 1496 1502 1507 1508 1506 1506 1504 1504 1504 1503 1502 1501 1500 1499 1497 1496 1495 1494 1492 1489 1487 1486 1484 1481 1480 1478 1477 1475 1474 1472 1472
1506 1502 1505 1508 1507 1510 1515 1508 1510 1510 1510 1508 1506 1501 1498 1503 1507 1507 1507 1506 1505 1504 1503 1502 1502 1501 1499 1497 1496 1494 1493 1491 1489 1486 1484 1481 1478 1475 1473 1472 1470 1469 1466 1467
1499 1501 1503 1503 1502 1506 1507 1506 1508 1508 1508 1509 1504 1505 1494 1502 1503 1505 1506 1505 1504 1504 1504 1504 1502 1500 1497 1495 1494 1492 1490 1489 1487 1484 1481 1479 1476 1472 1469 1467 1465 1464 1462 1460
1500 1501 1500 1498 1499 1501 1504 1505 1508 1511 1508 1504 1495 1495 1488 1494 1490 1500 1503 1504 1504 1504 1503 1501 1500 1499 1498 1495 1492 1489 1486 1485 1482 1478 1477 1474 1471 1468 1465 1463 1460 1457 1454 1454
1498 1496 1495 1496 1500 1501 1503 1507 1509 1506 1508 1497 1496 1496 1477 1487 1490 1490 1496 1499 1502 1502 1502 1501 1500 1498 1497 1494 1492 1489 1486 1484 1481 1477 1474 1470 1467 1464 1461 1458 1453 1450 1447 1445
1496 1495 1491 1492 1492 1494 1501 1502 1502 1504 1503 1495 1500 1488 1474 1485 1488 1492 1495 1497 1499 1499 1500 1499 1499 1498 1496 1493 1491 1489 1487 1482 1479 1476 1474 1468 1465 1461 1456 1453 1449 1445 1441 1438
1497 1495 1487 1488 1489 1492 1499 1499 1496 1497 1505 1501 1484 1479 1481 1485 1489 1492 1493 1495 1496 1498 1499 1499 1499 1497 1495 1492 1490 1487 1484 1480 1478 1475 1471 1466 1462 1458 1454 1451 1446 1441 1437 1432
1490 1491 1487 1486 1488 1491 1491 1492 1497 1502 1501 1496 1480 1478 1469 1479 1479 1486 1488 1490 1493 1495 1497 1497 1496 1495 1493 1491 1489 1486 1484 1481 1478 1474 1469 1465 1461 1456 1452 1447 1442 1437 1432 1428
1492 1495 1489 1489 1487 1484 1492 1491 1493 1492 1498 1491 1481 1465 1466 1466 1469 1473 1480 1486 1490 1490 1492 1494 1493 1492 1491 1491 1489 1486 1483 1481 1478 1474 1471 1466 1461 1456 1450 1445 1439 1435 1430 1425
1488 1491 1490 1486 1485 1487 1485 1480 1481 1486 1486 1491 1485 1463 1466 1466 1468 1472 1478 1484 1488 1488 1490 1492 1491 1490 1490 1489 1487 1485 1484 1482 1479 1476 1472 1466 1462 1456 1450 1445 1439 1435 1429 1423
1491 1488 1483 1481 1485 1485 1490 1481 1479 1481 1480 1473 1485 1459 1467 1467 1468 1472 1476 1480 1484 1486 1487 1490 1490 1489 1489 1488 1487 1487 1485 1484 1481 1477 1472 1468 1463 1457 1452 1446 1440 1436 1430 1424
1489 1488 1485 1481 1473 1477 1480 1477 1475 1476 1477 1467 1460 1458 1458 1465 1467 1472 1473 1474 1478 1485 1486 1488 1488 1488 1488 1489 1488 1487 1486 1483 1481 1475 1473 1470 1464 1460 1455 1450 1445 1439 1433 1428
1487 1482 1482 1477 1474 1474 1471 1469 1468 1470 1464 1467 1448 1457 1453 1458 1461 1464 1470 1474 1477 1483 1486 1487 1487 1487 1489 1489 1488 1487 1486 1483 1480 1477 1475 1472 1467 1463 1458 1453 1448 1442 1437 1431
1486 1481 1480 1472 1470 1469 1467 1463 1462 1461 1459 1456 1449 1446 1456 1461 1461 1464 1468 1471 1476 1480 1484 1485 1486 1487 1489 1488 1488 1487 1485 1482 1481 1479 1476 1473 1470 1466 1460 1454 1449 1445 1441 1437
1483 1482 1480 1468 1470 1473 1469 1448 1452 1450 1449 1449 1450 1444 1456 1458 1459 1462 1466 1471 1475 1478 1482 1484 1484 1486 1487 1487 1488 1487 1485 1483 1482 1480 1477 1474 1471 1466 1460 1456 1453 1449 1445 1441
1476 1480 1477 1467 1476 1463 1438 1448 1448 1447 1444 1446 1450 1451 1454 1456 1461 1464 1467 1469 1473 1477 1480 1481 1483 1485 1487 1488 1488 1488 1486 1484 1482 1480 1478 1475 1471 1467 1464 1461 1457 1452 1448 1443
1462 1467 1469 1465 1460 1448 1439 1447 1449 1446 1438 1440 1445 1452 1457 1460 1462 1466 1467 1469 1472 1476 1477 1479 1482 1485 1486 1487 1488 1487 1486 1484 1483 1481 1479 1477 1475 1472 1467 1463 1459 1456 1452 1447
1455 1457 1463 1462 1456 1447 1437 1442 1444 1446 1441 1441 1444 1451 1456 1460 1460 1461 1465 1468 1471 1474 1477 1480 1483 1485 1486 1487 1487 1487 1486 1485 1484 1483 1481 1480 1478 1474 1469 1466 1463 1459 1454 1450
1449 1452 1448 1446 1448 1438 1436 1442 1444 1444 1436 1442 1445 1449 1454 1456 1458 1458 1462 1467 1471 1474 1477 1481 1483 1485 1486 1486 1486 1486 1487 1486 1486 1485 1484 1483 1480 1477 1474 1470 1466 1462 1458 1453
1437 1440 1440 1445 1446 1438 1435 1442 1439 1435 1439 1441 1445 1448 1452 1454 1456 1459 1462 1466 1471 1474 1478 1481 1483 1484 1486 1486 1487 1487 1487 1487 1488 1488 1487 1485 1482 1480 1477 1473 1468 1463 1459 1455
1434 1428 1431 1431 1426 1431 1431 1432 1433 1435 1437 1441 1443 1447 1449 1451 1455 1459 1462 1468 1472 1475 1478 1481 1483 1485 1486 1487 1488 1488 1489 1489 1490 1490 1488 1487 1485 1482 1478 1473 1469 1465 1461 1456
1429 1428 1427 1429 1429 1429 1431 1432 1433 1435 1438 1440 1443 1444 1446 1449 1453 1458 1463 1468 1472 1475 1478 1481 1483 1485 1486 1488 1489 1489 1490 1491 1491 1491 1489 1488 1485 1481 1478 1474 1471 1468 1464 1460
1426 1428 1426 1427 1429 1430 1430 1430 1431 1434 1437 1439 1441 1442 1444 1448 1453 1458 1463 1468 1472 1475 1478 1480 1483 1485 1487 1488 1489 1490 1491 1492 1492 1491 1490 1488 1485 1482 1479 1476 1473 1471 1469 1467
1421 1422 1420 1413 1417 1418 1420 1425 1429 1432 1436 1438 1439 1442 1446 1449 1453 1459 1464 1468 1472 1475 1478 1481 1483 1486 1488 1489 1490 1491 1492 1492 1492 1491 1490 1488 1485 1484 1481 1479 1476 1474 1472 1470